Location: Mohawk View
(42.7837°N, 73.7885°W)
Time: 13:05:36
(UTC+00:00)

CZ-4C R/B - Pass Details

Date: 17 June 2021
Orbit: 464 x 632 km, 98.0° (Epoch: 26 July)

Event Time Altitude Azimuth Distance (km) Brightness Sun altitude
Exits shadow 07:20:55 - 145° (SE) 1,987 6.0 -15.9°
Reaches altitude 10° 07:21:48 10° 141° (SE) 1,630 5.6 -15.8°
Maximum altitude 07:25:03 39° 72° (ENE) 719 4.4 -15.5°
Drops below altitude 10° 07:28:18 10° 3° (N) 1,626 6.6 -15.1°
Sets 07:30:25 0° 355° (N) 2,510 7.5 -14.9°
